Eau Claire, WI

10:43 PM CST on February 18, 2018 (GMT -0600)
Chippewa Valley Regional

Weather History for KEAU - July, 2014

Change the Weather History Date:

Monday, July 7, 2014

  Actual Average Record
Temperature  
Mean Temperature 73 °F 72 °F  
Max Temperature 85 °F 83 °F 105 °F (1936)
Min Temperature 61 °F 60 °F 44 °F (1997)
Degree Days  
Heating Degree Days 0 0  
Month to date heating degree days 6 0  
Since 1 June heating degree days 31 62  
Since 1 July heating degree days 6 0  
Cooling Degree Days 8 7  
Month to date cooling degree days 32 48  
Year to date cooling degree days 201 200  
Since 1 June cooling degree days 166 168  
Growing Degree Days 22 (Base 50)    
Moisture  
Dew Point 63 °F    
Average Humidity 74    
Maximum Humidity 100    
Minimum Humidity 48    
Precipitation  
Precipitation 0.80 in 0.12 in 2.37 in (1955)
Month to date precipitation 1.00 0.88  
Year to date precipitation 24.94 14.65  
Snow  
Snow 0.00 in 0.00 in 0.00 in ()
Month to date snowfall 0.0 0.0  
Since 1 June snowfall 0.0 0.0  
Since 1 July snowfall 0.0 0.0  
Snow Depth 0.00 in    
Sea Level Pressure  
Sea Level Pressure 29.68 in    
Wind  
Wind Speed 8 mph (WSW)    
Max Wind Speed 23 mph    
Max Gust Speed 31 mph    
Visibility 9 miles    
Events Rain , Thunderstorm    
T = Trace of Precipitation, MM = Missing Value Source: NWS Daily Summary

Daily Weather History Graph

Daily Weather History Graph

Search for Another Location

Airport or City:

Trip Planner

Search our weather history database for the weather conditions in past years. The results will help you decide how hot, cold, wet, or windy it might be!

Date:

Astronomy

Jul. 07, 2014 Rise Set
Actual Time 5:27 AM CDT 8:53 PM CDT
Civil Twilight 4:50 AM CDT 9:30 PM CDT
Nautical Twilight 4:02 AM CDT 10:18 PM CDT
Astronomical Twilight 3:01 AM CDT 11:19 PM CDT
Moon 3:50 PM CDT (7/7) 1:29 AM CDT (7/7)
Length of Visible Light 16h 39m
Length of Day
15h 26m
Waxing Gibbous, 72% of the Moon is Illuminated
Jul 7
Waxing Gibbous
Jul 12
Full
Jul 18
Last Quarter
Jul 26
New
Aug 3
First Quarter

Hourly Weather History & Observations

Time (CDT) Temp. Heat Index Dew Point Humidity Pressure Visibility Wind Dir Wind Speed Gust Speed Precip Events Conditions
12:56 AM 68.0 °F - 61.0 °F 78% 29.70 in 10.0 mi NW 6.9 mph - N/A   Clear
1:56 AM 66.0 °F - 61.0 °F 84% 29.71 in 10.0 mi NW 6.9 mph - N/A   Clear
2:56 AM 66.0 °F - 60.1 °F 81% 29.70 in 10.0 mi Calm Calm - N/A   Clear
3:56 AM 63.0 °F - 60.1 °F 90% 29.70 in 10.0 mi WSW 4.6 mph - N/A   Clear
4:56 AM 61.0 °F - 59.0 °F 93% 29.70 in 10.0 mi WSW 4.6 mph - N/A   Clear
5:56 AM 61.0 °F - 59.0 °F 93% 29.72 in 10.0 mi SW 4.6 mph - N/A   Clear
6:56 AM 64.9 °F - 61.0 °F 87% 29.72 in 10.0 mi SW 5.8 mph - N/A   Clear
7:56 AM 69.1 °F - 62.1 °F 78% 29.73 in 10.0 mi SW 5.8 mph - N/A   Clear
8:56 AM 72.0 °F - 62.1 °F 71% 29.72 in 10.0 mi SW 10.4 mph - N/A   Clear
9:56 AM 75.9 °F - 63.0 °F 64% 29.72 in 10.0 mi SW 9.2 mph - N/A   Clear
10:56 AM 80.1 °F 81.5 °F 63.0 °F 56% 29.71 in 10.0 mi West 9.2 mph - N/A   Scattered Clouds
11:56 AM 80.1 °F 81.1 °F 61.0 °F 52% 29.72 in 10.0 mi WSW 12.7 mph - N/A   Mostly Cloudy
1:56 PM 84.0 °F 84.5 °F 62.1 °F 47% 29.67 in 10.0 mi WSW 12.7 mph 23.0 mph N/A   Mostly Cloudy
2:56 PM 80.1 °F 81.2 °F 62.1 °F 54% 29.66 in 10.0 mi West 10.4 mph - N/A   Overcast
3:05 PM 80.1 °F 81.5 °F 63.0 °F 56% 29.68 in 10.0 mi WSW 5.8 mph - N/A Thunderstorm Overcast
3:22 PM 71.1 °F - 66.9 °F 87% 29.69 in 2.0 mi WSW 16.1 mph - 0.16 in Rain , Thunderstorm Light Thunderstorms and Rain
3:29 PM 71.1 °F - 66.9 °F 87% 29.69 in 9.0 mi SW 11.5 mph - 0.18 in Rain , Thunderstorm Light Thunderstorms and Rain
3:45 PM 68.0 °F - 66.0 °F 93% 29.71 in 2.0 mi WSW 11.5 mph 31.1 mph 0.31 in Rain , Thunderstorm Thunderstorms and Rain
3:54 PM 66.2 °F - 64.4 °F 94% 29.72 in 10.0 mi WSW 11.5 mph - 0.31 in Rain , Thunderstorm Light Thunderstorms and Rain
3:56 PM 66.9 °F - 64.9 °F 93% 29.70 in 10.0 mi WSW 10.4 mph - 0.31 in Rain , Thunderstorm Light Thunderstorms and Rain
4:06 PM 66.9 °F - 63.0 °F 87% 29.70 in 10.0 mi WSW 10.4 mph - 0.01 in Rain , Thunderstorm Light Rain
4:26 PM 66.9 °F - 64.0 °F 90% 29.69 in 10.0 mi SW 6.9 mph - 0.01 in Rain Light Rain
4:56 PM 69.1 °F - 64.9 °F 87% 29.67 in 10.0 mi West 9.2 mph - 0.01 in   Overcast
5:56 PM 71.1 °F - 64.9 °F 81% 29.65 in 10.0 mi SSW 5.8 mph - N/A   Mostly Cloudy
6:56 PM 71.1 °F - 66.0 °F 84% 29.62 in 10.0 mi South 3.5 mph - 0.00 in   Overcast
7:15 PM 70.0 °F - 66.9 °F 90% 29.67 in 9.0 mi Variable 3.5 mph - 0.01 in Rain , Thunderstorm Light Rain
7:56 PM 66.0 °F - 64.0 °F 93% 29.70 in 1.0 mi West 15.0 mph 23.0 mph 0.27 in Rain , Thunderstorm Heavy Rain
8:05 PM 66.0 °F - 64.0 °F 93% 29.70 in 1.0 mi WNW 8.1 mph 23.0 mph 0.08 in Rain , Thunderstorm Heavy Thunderstorms and Rain
8:14 PM 64.9 °F - 64.0 °F 97% 29.64 in 2.5 mi ENE 6.9 mph - 0.12 in Rain , Thunderstorm Thunderstorms and Rain
8:19 PM 64.9 °F - 64.0 °F 97% 29.63 in 5.0 mi East 10.4 mph - 0.14 in Rain , Thunderstorm Rain
8:32 PM 66.0 °F - 64.9 °F 96% 29.64 in 10.0 mi South 6.9 mph - 0.14 in Rain Light Rain
8:56 PM 64.9 °F - 64.9 °F 100% 29.64 in 10.0 mi SSW 6.9 mph - 0.14 in   Partly Cloudy
9:56 PM 64.9 °F - 64.9 °F 100% 29.62 in 10.0 mi SSW 4.6 mph - N/A   Clear
10:56 PM 64.0 °F - 64.0 °F 100% 29.62 in 10.0 mi West 5.8 mph - N/A   Clear
11:16 PM 64.0 °F - 64.0 °F 100% 29.63 in 10.0 mi WSW 6.9 mph - N/A   Scattered Clouds
11:25 PM 64.9 °F - 64.0 °F 97% 29.64 in 9.0 mi WNW 9.2 mph - N/A   Mostly Cloudy